Time,TemperatureF,DewpointF,PressureIn,WindDirection,WindDirectionDegrees,WindSpeedMPH,WindSpeedGustMPH,Humidity,HourlyPrecipIn,Conditions,Clouds,dailyrainin,SoftwareType,DateUTC
2014-09-18 00:04:00,45.1,39.9,30.13,West,270,3.0,3.0,82,0.00,,,0.00,WUHU21623XXSP,2014-09-17 14:04:00,
2014-09-18 00:09:00,45.3,40.4,30.14,West,270,0.0,4.0,83,0.00,,,0.00,WUHU21623XXSP,2014-09-17 14:09:00,
2014-09-18 00:14:00,45.3,40.4,30.14,West,270,0.0,4.0,83,0.00,,,0.00,WUHU21623XXSP,2014-09-17 14:14:00,
2014-09-18 00:19:00,45.4,40.6,30.13,North,0,0.0,0.0,83,0.00,,,0.00,WUHU21623XXSP,2014-09-17 14:19:00,
2014-09-18 00:24:00,45.4,40.6,30.14,North,0,0.0,0.0,83,0.00,,,0.00,WUHU21623XXSP,2014-09-17 14:24:00,
2014-09-18 00:29:00,45.4,40.6,30.14,North,0,0.0,0.0,83,0.00,,,0.00,WUHU21623XXSP,2014-09-17 14:29:00,
2014-09-18 00:34:00,45.4,40.5,30.14,North,0,0.0,0.0,83,0.00,,,0.00,WUHU21623XXSP,2014-09-17 14:34:00,
2014-09-18 00:39:00,45.6,40.7,30.14,North,0,0.0,0.0,83,0.00,,,0.00,WUHU21623XXSP,2014-09-17 14:39:00,
2014-09-18 00:44:00,45.7,40.8,30.14,North,0,0.0,0.0,83,0.00,,,0.00,WUHU21623XXSP,2014-09-17 14:44:00,
2014-09-18 00:49:00,45.7,40.8,30.13,North,0,0.0,0.0,83,0.00,,,0.00,WUHU21623XXSP,2014-09-17 14:49:00,
2014-09-18 00:54:00,45.7,40.8,30.13,North,0,0.0,0.0,83,0.00,,,0.00,WUHU21623XXSP,2014-09-17 14:54:00,
2014-09-18 00:59:00,45.6,40.8,30.13,North,0,0.0,0.0,83,0.00,,,0.00,WUHU21623XXSP,2014-09-17 14:59:00,
2014-09-18 01:04:00,45.6,40.8,30.13,North,0,0.0,0.0,83,0.00,,,0.00,WUHU21623XXSP,2014-09-17 15:04:00,
2014-09-18 01:09:00,45.5,40.3,30.13,North,0,0.0,0.0,82,0.00,,,0.00,WUHU21623XXSP,2014-09-17 15:09:00,
2014-09-18 01:14:00,45.5,40.6,30.14,North,0,0.0,0.0,83,0.00,,,0.00,WUHU21623XXSP,2014-09-17 15:14:00,
2014-09-18 01:19:00,45.3,40.4,30.14,North,0,0.0,0.0,83,0.00,,,0.00,WUHU21623XXSP,2014-09-17 15:19:00,
2014-09-18 01:23:00,45.3,40.4,30.14,North,0,0.0,0.0,83,0.00,,,0.00,WUHU21623XXSP,2014-09-17 15:23:00,
2014-09-18 01:28:00,45.1,40.2,30.14,North,0,0.0,0.0,83,0.00,,,0.00,WUHU21623XXSP,2014-09-17 15:28:00,
2014-09-18 01:33:00,44.9,39.7,30.14,North,0,0.0,0.0,82,0.00,,,0.00,WUHU21623XXSP,2014-09-17 15:33:00,
2014-09-18 01:38:00,44.7,39.5,30.14,North,0,0.0,0.0,82,0.00,,,0.00,WUHU21623XXSP,2014-09-17 15:38:00,
2014-09-18 01:43:00,44.6,39.8,30.14,North,0,0.0,0.0,83,0.00,,,0.00,WUHU21623XXSP,2014-09-17 15:43:00,
2014-09-18 01:48:00,44.6,39.8,30.14,North,0,0.0,0.0,83,0.00,,,0.00,WUHU21623XXSP,2014-09-17 15:48:00,
2014-09-18 01:53:00,44.6,39.8,30.14,North,0,0.0,0.0,83,0.00,,,0.00,WUHU21623XXSP,2014-09-17 15:53:00,
2014-09-18 01:58:00,44.8,40.0,30.14,North,0,0.0,0.0,83,0.00,,,0.00,WUHU21623XXSP,2014-09-17 15:58:00,
2014-09-18 02:03:00,44.8,40.0,30.14,North,0,0.0,0.0,83,0.00,,,0.00,WUHU21623XXSP,2014-09-17 16:03:00,
2014-09-18 02:08:00,44.8,40.0,30.14,North,0,0.0,0.0,83,0.00,,,0.00,WUHU21623XXSP,2014-09-17 16:08:00,
2014-09-18 02:13:00,45.0,40.4,30.14,North,0,0.0,0.0,84,0.00,,,0.00,WUHU21623XXSP,2014-09-17 16:13:00,
2014-09-18 02:18:00,45.0,40.4,30.14,North,0,0.0,0.0,84,0.00,,,0.00,WUHU21623XXSP,2014-09-17 16:18:00,
2014-09-18 02:23:00,45.0,40.4,30.14,North,0,0.0,0.0,84,0.00,,,0.00,WUHU21623XXSP,2014-09-17 16:23:00,
2014-09-18 02:28:00,44.8,40.2,30.14,North,0,0.0,0.0,84,0.00,,,0.00,WUHU21623XXSP,2014-09-17 16:28:00,
2014-09-18 02:33:00,44.8,40.2,30.14,North,0,0.0,0.0,84,0.00,,,0.00,WUHU21623XXSP,2014-09-17 16:33:00,
2014-09-18 02:38:00,44.6,40.0,30.14,North,0,0.0,0.0,84,0.00,,,0.00,WUHU21623XXSP,2014-09-17 16:38:00,